Weather History for YSSY - February, 2014

Change the Weather History Date:

Saturday, February 1, 2014

  Actual Average Record
Temperature  
Mean Temperature 75 °F -  
Max Temperature 81 °F 80 °F 105 °F (2011)
Min Temperature 69 °F 66 °F 64 °F (2004)
Cooling Degree Days 10    
Growing Degree Days 25 (Base 50)    
Moisture  
Dew Point 66 °F    
Average Humidity 74    
Maximum Humidity 88    
Minimum Humidity 48    
Precipitation  
Precipitation 0.00 in 0.15 in - ()
Sea Level Pressure  
Sea Level Pressure 29.93 in    
Wind  
Wind Speed 14 mph ()    
Max Wind Speed 21 mph    
Max Gust Speed -    
Visibility 7.3 miles    
Events      
Averages and records for this station are not official NWS values.
T = Trace of Precipitation, MM = Missing Value Source: Averaged Metar Reports

Daily Weather History Graph

Daily Weather History Graph

Search for Another Location

Airport or City:

Trip Planner

Search our weather history database for the weather conditions in past years. The results will help you decide how hot, cold, wet, or windy it might be!

Date:

Astronomy

Feb. 01, 2014 Rise Set
Actual Time 6:16 AM AEDT 8:00 PM AEDT
Civil Twilight 5:49 AM AEDT 8:28 PM AEDT
Nautical Twilight 5:16 AM AEDT 9:00 PM AEDT
Astronomical Twilight 4:41 AM AEDT 9:35 PM AEDT
Moon 7:33 AM AEDT (2/1) 8:41 PM AEDT (2/1)
Length of Visible Light 14h 38m
Length of Day
13h 44m
New Moon, 2% of the Moon is Illuminated
Feb 1
New Moon
Feb 7
First Quarter
Feb 15
Full
Feb 23
Last Quarter
Mar 1
New

Hourly Weather History & Observations

Time (AEDT) Temp. Heat Index Dew Point Humidity Pressure Visibility Wind Dir Wind Speed Gust Speed Precip Events Conditions
12:00 AM 72 °F - 64 °F 68% 29.94 in 16 mi SE 8.1 mph - -   Partly Cloudy
12:00 AM 71.6 °F - 64.4 °F 78% 29.92 in - SE 8.1 mph - N/A   Clear
12:30 AM 69.8 °F - 64.4 °F 83% 29.92 in - South 17.3 mph - N/A   Clear
1:00 AM 71 °F - 67 °F 85% 29.95 in - South 18.4 mph - -  
1:00 AM 71.6 °F - 68.0 °F 88% 29.95 in 6.2 mi South 18.4 mph - N/A   Mostly Cloudy
1:30 AM 71.6 °F - 68.0 °F 88% 29.95 in 6.2 mi South 20.7 mph - N/A   Scattered Clouds
2:00 AM 71 °F - 67 °F 85% 29.94 in - South 20.7 mph - -  
2:00 AM 71.6 °F - 68.0 °F 88% 29.92 in 6.2 mi South 20.7 mph - N/A   Mostly Cloudy
2:30 AM 71.6 °F - 66.2 °F 83% 29.92 in 6.2 mi South 17.3 mph - N/A   Mostly Cloudy
3:00 AM 71 °F - 67 °F 82% 29.94 in 12 mi South 19.6 mph - -   Partly Cloudy
3:00 AM 71.6 °F - 66.2 °F 83% 29.92 in 6.2 mi South 19.6 mph - N/A   Mostly Cloudy
3:30 AM 71.6 °F - 66.2 °F 83% 29.92 in 6.2 mi South 19.6 mph - N/A   Scattered Clouds
4:00 AM 71 °F - 66 °F 80% 29.94 in - South 19.6 mph - -  
4:00 AM 71.6 °F - 66.2 °F 83% 29.92 in 6.2 mi South 19.6 mph - N/A   Mostly Cloudy
4:30 AM 71.6 °F - 66.2 °F 83% 29.92 in 6.2 mi South 19.6 mph - N/A   Mostly Cloudy
5:00 AM 71 °F - 66 °F 80% 29.94 in - South 18.4 mph - -  
5:00 AM 71.6 °F - 66.2 °F 83% 29.92 in 6.2 mi South 18.4 mph - N/A   Mostly Cloudy
5:30 AM 71.6 °F - 66.2 °F 83% 29.95 in 6.2 mi South 18.4 mph - N/A   Mostly Cloudy
6:00 AM 71 °F - 66 °F 80% 29.95 in 9 mi South 17.3 mph - -   Haze
6:00 AM 69.8 °F - 66.2 °F 88% 29.95 in 6.2 mi South 17.3 mph - N/A   Mostly Cloudy
6:30 AM 69.8 °F - 66.2 °F 88% 29.95 in 6.2 mi South 17.3 mph - N/A   Mostly Cloudy
7:00 AM 71 °F - 66 °F 80% 29.96 in - South 15.0 mph - -  
7:00 AM 69.8 °F - 66.2 °F 88% 29.95 in 6.2 mi South 15.0 mph - N/A   Mostly Cloudy
7:30 AM 71.6 °F - 66.2 °F 83% 29.95 in 6.2 mi South 16.1 mph - N/A   Mostly Cloudy
8:00 AM 71 °F - 66 °F 79% 29.98 in - South 16.1 mph - -  
8:00 AM 71.6 °F - 66.2 °F 83% 29.98 in 6.2 mi South 16.1 mph - N/A   Mostly Cloudy
8:30 AM 71.6 °F - 66.2 °F 83% 29.98 in 6.2 mi South 12.7 mph - N/A   Mostly Cloudy
9:00 AM 72 °F - 66 °F 76% 29.99 in 8 mi South 15.0 mph - -   Haze
9:00 AM 71.6 °F - 66.2 °F 83% 29.98 in 6.2 mi South 15.0 mph - N/A   Mostly Cloudy
9:30 AM 71.6 °F - 66.2 °F 83% 29.98 in 6.2 mi South 16.1 mph - N/A   Mostly Cloudy
10:00 AM 73 °F - 66 °F 72% 29.98 in - South 15.0 mph - -  
10:00 AM 73.4 °F - 66.2 °F 78% 29.98 in 6.2 mi South 15.0 mph - N/A   Mostly Cloudy
10:30 AM 73.4 °F - 66.2 °F 78% 29.98 in 6.2 mi South 15.0 mph - N/A   Scattered Clouds
11:00 AM 74 °F - 66 °F 69% 29.99 in - South 15.0 mph - -  
11:00 AM 73.4 °F - 66.2 °F 78% 29.98 in 6.2 mi South 15.0 mph - N/A   Scattered Clouds
11:30 AM 73.4 °F - 66.2 °F 78% 29.95 in 6.2 mi South 15.0 mph - N/A   Scattered Clouds
12:00 PM 74 °F - 67 °F 73% 29.96 in 11 mi South 15.0 mph - -   Haze
12:00 PM 75.2 °F - 66.2 °F 73% 29.95 in 6.2 mi South 15.0 mph - N/A   Scattered Clouds
12:30 PM 75.2 °F - 68.0 °F 78% 29.95 in 6.2 mi South 13.8 mph - N/A   Scattered Clouds
1:00 PM 77 °F - 67 °F 65% 29.95 in - South 13.8 mph - -  
1:00 PM 77.0 °F - 68.0 °F 74% 29.95 in 6.2 mi South 13.8 mph - N/A   Scattered Clouds
1:30 PM 78.8 °F - 66.2 °F 65% 29.92 in 6.2 mi SE 13.8 mph - N/A   Scattered Clouds
2:00 PM 78 °F - 65 °F 56% 29.93 in - ESE 15.0 mph - -  
2:00 PM 78.8 °F - 64.4 °F 61% 29.92 in 6.2 mi ESE 15.0 mph - N/A   Scattered Clouds
2:30 PM 78.8 °F - 66.2 °F 65% 29.92 in 6.2 mi SE 13.8 mph - N/A   Scattered Clouds
3:00 PM 80 °F - 66 °F 54% 29.91 in 12 mi SE 15.0 mph - -   Haze
3:00 PM 80.6 °F 82.7 °F 66.2 °F 61% 29.89 in 6.2 mi SE 15.0 mph - N/A   Scattered Clouds
3:30 PM 80.6 °F 82.7 °F 66.2 °F 61% 29.89 in 6.2 mi SSE 13.8 mph - N/A   Partly Cloudy
4:00 PM 81 °F - 65 °F 49% 29.89 in - SE 13.8 mph - -  
4:30 PM 80.6 °F 82.3 °F 64.4 °F 58% 29.86 in 6.2 mi ESE 12.7 mph - N/A   Partly Cloudy
5:00 PM 79 °F - 63 °F 48% 29.87 in - East 13.8 mph - -  
5:00 PM 78.8 °F - 62.6 °F 57% 29.86 in 6.2 mi East 13.8 mph - N/A   Partly Cloudy
5:30 PM 77.0 °F - 62.6 °F 61% 29.86 in 6.2 mi East 13.8 mph - N/A   Partly Cloudy
6:00 PM 78 °F - 63 °F 50% 29.87 in 19 mi East 12.7 mph - -   Haze
6:00 PM 77.0 °F - 62.6 °F 61% 29.86 in 6.2 mi East 12.7 mph - N/A   Partly Cloudy
7:00 PM 75 °F - 64 °F 61% 29.88 in - ENE 17.3 mph - -  
7:00 PM 75.2 °F - 64.4 °F 69% 29.86 in 6.2 mi ENE 17.3 mph - N/A   Partly Cloudy
7:30 PM 75.2 °F - 64.4 °F 69% 29.86 in 6.2 mi NE 16.1 mph - N/A   Partly Cloudy
8:00 PM 75 °F - 65 °F 63% 29.88 in - ENE 13.8 mph - -  
8:00 PM 75.2 °F - 64.4 °F 69% 29.86 in 6.2 mi ENE 13.8 mph - N/A   Partly Cloudy
8:30 PM 73.4 °F - 66.2 °F 78% 29.89 in 6.2 mi ENE 10.4 mph - N/A   Partly Cloudy
9:00 PM 74 °F - 66 °F 71% 29.91 in 19 mi ENE 10.4 mph - -   Haze
9:00 PM 73.4 °F - 66.2 °F 78% 29.89 in 6.2 mi ENE 10.4 mph - N/A   Partly Cloudy
9:30 PM 73.4 °F - 66.2 °F 78% 29.92 in 6.2 mi ENE 9.2 mph - N/A   Partly Cloudy
10:00 PM 74 °F - 67 °F 72% 29.93 in - ENE 9.2 mph - -  
10:00 PM 75.2 °F - 66.2 °F 73% 29.92 in 6.2 mi ENE 9.2 mph - N/A   Partly Cloudy
10:30 PM 75.2 °F - 66.2 °F 73% 29.92 in 6.2 mi NE 9.2 mph - N/A   Partly Cloudy
11:00 PM 74 °F - 67 °F 72% 29.93 in - NE 9.2 mph - -  
11:00 PM 73.4 °F - 66.2 °F 78% 29.92 in 6.2 mi NE 9.2 mph - N/A   Partly Cloudy
11:30 PM 75.2 °F - 66.2 °F 73% 29.92 in 6.2 mi ENE 9.2 mph - N/A   Partly Cloudy